Hourly Data Report for May 30, 2004

SHERBROOKE A
QUEBEC

45°26'00.000" N
71°41'00.000" W
241.40 m
7028124
71610
YSC

Download Data

Hourly Data (May 2004)
Hourly Data Report for May 30, 2004
TIME
LST
Temp Definition
°C
Dew Point Definition
°C
Rel Hum Definition
%
Precip. Amount Definition
mm

Wind Dir Definition
10's deg

Wind Spd Definition
km/h
Visibility Definition
km
Stn Press Definition
kPa
Hmdx Definition


Wind Chill Definition


Weather Definition


00:00 4.5 -1.0 67   29 6 15.0 98.43      
01:00 1.1 -1.9 80   23 4 15.0 98.40      
02:00 -0.2 -2.2 86   19 6 15.0 98.43   -2  
03:00 -0.4 -2.8 84   22 4 15.0 98.43   -2  
04:00 -1.3 -3.0 88   22 6 15.0 98.44   -4  
05:00 1.8 -0.6 84     0 15.0 98.49      
06:00 4.4 0.7 77   25 9 15.0 98.54      
07:00 7.4 -0.4 58   30 17 24.1 98.57     Clear
08:00 8.4 -0.8 52   31 19 24.1 98.54     Mainly Clear
09:00 10.0 -0.9 47   31 15 24.1 98.48     Mainly Clear
10:00 10.7 -1.4 43   30 22 24.1 98.45     Clear
11:00 12.5 0.8 45   32 11 24.1 98.42     Clear
12:00 13.0 -0.3 40   29 26 24.1 98.36     Clear
13:00 14.2 -2.5 31   31 28 24.1 98.30     Mainly Clear
14:00 15.1 -1.2 33   28 33 24.1 98.27     Clear
15:00 15.6 -1.5 31   28 26 24.1 98.25     Clear
16:00 15.4 -3.6 27   29 20 24.1 98.26     Clear
17:00 15.2 -4.4 26   32 17 15.0 98.28      
18:00 14.4 -4.3 27   31 15 15.0 98.30      
19:00 11.8 -2.8 36   30 6 15.0 98.31      
20:00 5.8 1.3 73     0 15.0 98.33      
21:00 2.9 0.3 83   28 4 15.0 98.37      
22:00 1.9 -0.4 85   13 4 15.0 98.34      
23:00 2.6 0.0 83   10 7 15.0 98.33      

Notes on Data Quality.

Legend

  • E = Estimated
  • M = Missing
  • NA = Not Available*
  • [empty] = Indicates an unobserved value
Date modified: